When you browse on this site, cookies collect data to enhance your experience and personalize the content and advertising you see.
Visit our Privacy Policy to learn more. By continuing to use the site, you agree to this use of cookies and data.
  • en Suisse
  • Liste des pays
  • À 7 jours
  • Température de l'eau
  • Carte satellitaire
  • Carte météo
  • Widgets météo
  • user-avatar
    Se connecter

    Météo par heure à Griboedovo

    Ce jour, 24 Juin, Lundi

    Heure Température Précipitation Vent Pression Humidité
    00:00 +18°C° 0.7 mm 4 m/s 750 mmHg 85%
    01:00 +17°C° 0.1 mm 3 m/s 750 mmHg 87%
    02:00 +17°C° 0.1 mm 3 m/s 750 mmHg 88%
    03:00 +16°C° 0 mm 3 m/s 750 mmHg 88%
    04:00 +16°C° 0.2 mm 3 m/s 750 mmHg 88%
    05:00 +16°C° 0.2 mm 3 m/s 750 mmHg 87%
    06:00 +14°C° 0.2 mm 4 m/s 750 mmHg 86%
    07:00 +15°C° 0.2 mm 4 m/s 750 mmHg 84%
    08:00 +17°C° 0.2 mm 4 m/s 751 mmHg 81%
    09:00 +19°C° 0 mm 4 m/s 751 mmHg 79%
    10:00 +20°C° 0 mm 3 m/s 751 mmHg 73%
    11:00 +21°C° 0 mm 3 m/s 751 mmHg 67%
    12:00 +22°C° 0 mm 3 m/s 751 mmHg 61%
    13:00 +24°C° 0 mm 3 m/s 751 mmHg 60%
    14:00 +24°C° 0 mm 3 m/s 751 mmHg 60%
    15:00 +25°C° 0 mm 3 m/s 751 mmHg 59%
    16:00 +25°C° 0 mm 3 m/s 751 mmHg 60%
    17:00 +24°C° 0 mm 3 m/s 751 mmHg 62%
    18:00 +24°C° 0 mm 2 m/s 751 mmHg 63%
    19:00 +23°C° 0 mm 2 m/s 752 mmHg 65%
    20:00 +20°C° 0 mm 2 m/s 752 mmHg 68%
    21:00 +18°C° 0 mm 2 m/s 752 mmHg 70%
    22:00 +17°C° 0 mm 2 m/s 753 mmHg 71%
    23:00 +17°C° 0 mm 2 m/s 753 mmHg 72%

    Demain, 25 Juin, Mardi

    Heure Température Précipitation Vent Pression Humidité
    00:00 +16°C° 0 mm 3 m/s 753 mmHg 73%
    01:00 +15°C° 0 mm 2 m/s 753 mmHg 73%
    02:00 +15°C° 0 mm 2 m/s 754 mmHg 73%
    03:00 +14°C° 0 mm 2 m/s 754 mmHg 74%
    04:00 +14°C° 0 mm 2 m/s 754 mmHg 75%
    05:00 +15°C° 0 mm 2 m/s 754 mmHg 76%
    06:00 +14°C° 0 mm 3 m/s 754 mmHg 77%
    07:00 +16°C° 0 mm 3 m/s 755 mmHg 73%
    08:00 +17°C° 0 mm 3 m/s 755 mmHg 68%
    09:00 +19°C° 0 mm 3 m/s 755 mmHg 64%
    10:00 +20°C° 0 mm 3 m/s 755 mmHg 61%
    11:00 +21°C° 0 mm 3 m/s 755 mmHg 57%
    12:00 +22°C° 0 mm 3 m/s 755 mmHg 54%
    13:00 +22°C° 0 mm 3 m/s 755 mmHg 53%
    14:00 +22°C° 0 mm 3 m/s 755 mmHg 51%
    15:00 +22°C° 0 mm 3 m/s 755 mmHg 50%
    16:00 +22°C° 0 mm 3 m/s 755 mmHg 54%
    17:00 +23°C° 0 mm 2 m/s 755 mmHg 59%
    18:00 +21°C° 0 mm 2 m/s 755 mmHg 63%
    19:00 +20°C° 0 mm 2 m/s 755 mmHg 66%
    20:00 +18°C° 0 mm 2 m/s 755 mmHg 68%
    21:00 +16°C° 0 mm 2 m/s 755 mmHg 71%
    22:00 +15°C° 0 mm 1 m/s 755 mmHg 71%
    23:00 +15°C° 0 mm 1 m/s 755 mmHg 72%

    Après-demain, 26 Juin, Mercredi

    Heure Température Précipitation Vent Pression Humidité
    00:00 +14°C° 0 mm 1 m/s 755 mmHg 72%
    01:00 +13°C° 0 mm 1 m/s 755 mmHg 73%
    02:00 +13°C° 0 mm 1 m/s 755 mmHg 74%
    03:00 +13°C° 0 mm 1 m/s 755 mmHg 74%
    04:00 +13°C° 0 mm 1 m/s 755 mmHg 75%
    05:00 +14°C° 0 mm 1 m/s 755 mmHg 75%
    06:00 +15°C° 0 mm 1 m/s 755 mmHg 76%
    07:00 +16°C° 0 mm 2 m/s 754 mmHg 73%
    08:00 +18°C° 0 mm 2 m/s 754 mmHg 69%
    09:00 +19°C° 0 mm 2 m/s 754 mmHg 65%
    10:00 +20°C° 0.1 mm 3 m/s 754 mmHg 63%
    11:00 +21°C° 0.1 mm 3 m/s 753 mmHg 60%
    12:00 +22°C° 0.1 mm 4 m/s 753 mmHg 57%
    13:00 +22°C° 0.1 mm 4 m/s 752 mmHg 57%
    14:00 +23°C° 0.1 mm 4 m/s 752 mmHg 57%
    15:00 +23°C° 0.1 mm 5 m/s 752 mmHg 57%
    16:00 +21°C° 0.4 mm 5 m/s 751 mmHg 65%
    17:00 +20°C° 0.4 mm 4 m/s 751 mmHg 73%
    18:00 +18°C° 0.4 mm 4 m/s 750 mmHg 81%
    19:00 +17°C° 0.3 mm 3 m/s 750 mmHg 85%
    20:00 +16°C° 0.3 mm 2 m/s 749 mmHg 89%
    21:00 +15°C° 0.3 mm 1 m/s 749 mmHg 93%
    22:00 +15°C° 0.1 mm 1 m/s 749 mmHg 93%
    23:00 +14°C° 0.1 mm 1 m/s 748 mmHg 93%

    27 Juin, Jeudi

    Heure Température Précipitation Vent Pression Humidité
    00:00 +14°C° 0.1 mm 1 m/s 748 mmHg 93%
    01:00 +14°C° 0 mm 1 m/s 748 mmHg 93%
    02:00 +14°C° 0 mm 1 m/s 747 mmHg 93%
    03:00 +13°C° 0 mm 1 m/s 747 mmHg 93%
    04:00 +14°C° 0 mm 1 m/s 746 mmHg 92%
    05:00 +14°C° 0 mm 1 m/s 746 mmHg 91%
    06:00 +14°C° 0 mm 1 m/s 745 mmHg 90%
    07:00 +14°C° 0.2 mm 1 m/s 745 mmHg 91%
    08:00 +15°C° 0.2 mm 2 m/s 744 mmHg 91%
    09:00 +14°C° 0.2 mm 3 m/s 743 mmHg 92%
    10:00 +14°C° 1.7 mm 4 m/s 743 mmHg 93%
    11:00 +14°C° 1.7 mm 5 m/s 742 mmHg 94%
    12:00 +14°C° 1.7 mm 6 m/s 741 mmHg 95%
    13:00 +14°C° 3.7 mm 6 m/s 740 mmHg 95%
    14:00 +15°C° 3.7 mm 6 m/s 739 mmHg 95%
    15:00 +15°C° 3.7 mm 7 m/s 738 mmHg 95%
    16:00 +16°C° 3 mm 6 m/s 737 mmHg 95%
    17:00 +17°C° 3 mm 5 m/s 736 mmHg 95%
    18:00 +19°C° 3 mm 3 m/s 735 mmHg 94%
    19:00 +19°C° 2.7 mm 4 m/s 734 mmHg 94%
    20:00 +19°C° 2.7 mm 4 m/s 733 mmHg 94%
    21:00 +18°C° 2.7 mm 4 m/s 732 mmHg 93%
    22:00 +18°C° 2.3 mm 4 m/s 732 mmHg 94%
    23:00 +17°C° 2.3 mm 5 m/s 731 mmHg 94%

    28 Juin, Vendredi

    Heure Température Précipitation Vent Pression Humidité
    00:00 +17°C° 2.3 mm 5 m/s 730 mmHg 94%
    01:00 +16°C° 0.3 mm 5 m/s 729 mmHg 94%
    02:00 +16°C° 0.3 mm 5 m/s 729 mmHg 94%
    03:00 +15°C° 0.3 mm 5 m/s 729 mmHg 94%
    04:00 +15°C° 0 mm 5 m/s 728 mmHg 94%
    05:00 +14°C° 0 mm 6 m/s 728 mmHg 93%
    06:00 +14°C° 0 mm 6 m/s 728 mmHg 92%
    07:00 +14°C° 0 mm 6 m/s 727 mmHg 91%
    08:00 +14°C° 0 mm 6 m/s 727 mmHg 90%
    09:00 +14°C° 0 mm 6 m/s 727 mmHg 89%
    10:00 +14°C° 0.1 mm 6 m/s 727 mmHg 88%
    11:00 +14°C° 0.1 mm 6 m/s 727 mmHg 86%
    12:00 +14°C° 0.1 mm 7 m/s 727 mmHg 85%
    13:00 +14°C° 0.6 mm 7 m/s 726 mmHg 87%
    14:00 +12°C° 0.6 mm 7 m/s 726 mmHg 90%
    15:00 +12°C° 0.6 mm 7 m/s 726 mmHg 93%
    16:00 +11°C° 0.6 mm 6 m/s 726 mmHg 93%
    17:00 +12°C° 0.6 mm 5 m/s 726 mmHg 93%
    18:00 +12°C° 0.6 mm 5 m/s 726 mmHg 94%
    19:00 +12°C° 0.3 mm 5 m/s 726 mmHg 94%
    20:00 +12°C° 0.3 mm 4 m/s 726 mmHg 95%
    21:00 +12°C° 0.3 mm 4 m/s 726 mmHg 95%
    22:00 +12°C° 0.2 mm 4 m/s 726 mmHg 95%
    23:00 +12°C° 0.2 mm 4 m/s 726 mmHg 95%

    29 Juin, Samedi

    Heure Température Précipitation Vent Pression Humidité
    00:00 +12°C° 0.2 mm 5 m/s 726 mmHg 95%
    01:00 +12°C° 0.4 mm 5 m/s 725 mmHg 95%
    02:00 +10°C° 0.4 mm 6 m/s 725 mmHg 95%
    03:00 +10°C° 0.4 mm 7 m/s 725 mmHg 94%
    04:00 +10°C° 0.8 mm 7 m/s 725 mmHg 95%
    05:00 +10°C° 0.8 mm 7 m/s 725 mmHg 95%
    06:00 +10°C° 0.8 mm 6 m/s 725 mmHg 95%
    07:00 +10°C° 0.8 mm 6 m/s 725 mmHg 95%
    08:00 +10°C° 0.8 mm 6 m/s 725 mmHg 95%
    09:00 +10°C° 0.8 mm 6 m/s 725 mmHg 95%
    10:00 +10°C° 0.5 mm 6 m/s 725 mmHg 94%
    11:00 +11°C° 0.5 mm 6 m/s 726 mmHg 94%
    12:00 +11°C° 0.5 mm 6 m/s 726 mmHg 93%
    13:00 +12°C° 0.2 mm 5 m/s 726 mmHg 93%
    14:00 +12°C° 0.2 mm 5 m/s 727 mmHg 93%
    15:00 +12°C° 0.2 mm 5 m/s 727 mmHg 93%
    16:00 +12°C° 0.4 mm 5 m/s 727 mmHg 94%
    17:00 +12°C° 0.4 mm 4 m/s 727 mmHg 95%
    18:00 +12°C° 0.4 mm 4 m/s 728 mmHg 95%
    19:00 +12°C° 0.3 mm 4 m/s 728 mmHg 95%
    20:00 +11°C° 0.3 mm 3 m/s 728 mmHg 96%
    21:00 +11°C° 0.3 mm 3 m/s 728 mmHg 96%
    22:00 +11°C° 0.3 mm 3 m/s 728 mmHg 97%
    23:00 +12°C° 0.3 mm 2 m/s 728 mmHg 97%
    Voir plus